Hourly Data Report for October 20, 2015

All times are specified in Local Standard Time (LST). Add 1 hour to adjust for Daylight Saving Time where and when it is observed.

BATHURST A
NEW BRUNSWICK

47°37'47.000" N
65°44'20.000" W
58.80 m
8100505
71574
ZBF

Download Data

Hourly Data (October 2015)
Hourly Data Report for October 20, 2015
Temp Definition
°C
Dew Point Temp Definition
°C
Rel Hum Definition
%
Wind Dir Definition
10's deg

Wind Spd Definition
km/h
Visibility Definition
km
Stn Press Definition
kPa
Hmdx Definition


Wind Chill Definition


Weather Definition


TIME
00:00 Legend Double Dagger 0.0 -2.2 85 18 8 11.3 100.77   -3 Snow Showers
01:00 Legend Double Dagger 0.0 -2.1 86 13 7 24.1 100.71   -2 LegendNANA
02:00 Legend Double Dagger 1.3 -2.7 75 16 7 24.1 100.64     Cloudy
03:00 Legend Double Dagger 2.2 -3.7 65 17 8 24.1 100.53     LegendNANA
04:00 Legend Double Dagger 2.5 -4.1 62 19 9 24.1 100.44     LegendNANA
05:00 Legend Double Dagger 2.5 -4.1 62 18 13 24.1 100.41     Cloudy
06:00 Legend Double Dagger 2.5 -3.6 64 18 8 24.1 100.36     LegendNANA
07:00 Legend Double Dagger 2.7 -3.7 63 17 12 24.1 100.30     LegendNANA
08:00 Legend Double Dagger 4.3 -3.5 57 19 9 24.1 100.27     Mostly Cloudy
09:00 Legend Double Dagger 4.8 -3.0 57 20 13 24.1 100.20     LegendNANA
10:00 Legend Double Dagger 5.2 -2.4 58 20 22 24.1 100.10     LegendNANA
11:00 Legend Double Dagger 8.8 -0.5 52 21 33 24.1 99.93     Mainly Clear
12:00 Legend Double Dagger 12.3 2.8 52 25 36 24.1 99.97     LegendNANA
13:00 Legend Double Dagger 12.2 3.7 56 26 35 24.1 99.94     LegendNANA
14:00 Legend Double Dagger 11.1 3.9 61 25 28 24.1 99.97     Mostly Cloudy
15:00 Legend Double Dagger 10.9 4.2 63 26 25 24.1 99.99     LegendNANA
16:00 Legend Double Dagger 10.4 5.0 69 31 20 24.1 100.09     Rain Showers
17:00 Legend Double Dagger 7.4 3.8 78 27 17 24.1 100.22     Mainly Clear
18:00 Legend Double Dagger 5.8 1.4 73 26 16 24.1 100.33     LegendNANA
19:00 Legend Double Dagger 4.6 0.2 73 25 16 24.1 100.49     LegendNANA
20:00 Legend Double Dagger 3.6 -1.6 69 26 16 24.1 100.59     Clear
21:00 Legend Double Dagger 2.6 -3.7 63 27 12 24.1 100.69     LegendNANA
22:00 Legend Double Dagger 1.3 -4.2 67 36 3 24.1 100.79     LegendNANA
23:00 Legend Double Dagger -0.1 -4.7 71 23 4 24.1 100.87   -1 Clear

Notes on Data Quality.

Legend

  • E = Estimated
  • M = Missing
  • NA = Not Available
  • ‡ = Partner data that is not subject to review by the National Climate Archives
Date modified: